FENGYUN 1C DEB

Satellite information

Favourite Embed

Satellite Type and Status

DEBRISIN ORBIT

Key statistics

Satellite FENGYUN 1C DEB at a glance.

Uptime

9670

Days in orbit

Revolutions

≈ 14.2

Per day

Orbit

SSO

Sun Synchronous Orbit

Inclination

98.7

Latest

Satellite identification and parameters

Extended collection of information and parameters for FENGYUN 1C DEB.

Object identification

Identified? True

Debris? True

Object name: FENGYUN 1C DEB

International designator: 1999-025EYE

Object number (NORAD): 41827

Object ID (CCSDS): 41827

Country: PEOPLES REPUBLIC OF CHINA (PRC)

Current information (Y/N): Y

RCS size: SMALL

Orbital parameters

Period: 101.067 minutes

Inclination: 98.7454 deg

SMA: 7187.309 km

Apoapsis: 848.968 km

Periapsis: 769.381 km

RAAN: 11.5387 deg

Eccentricy: 0.00553662

Argument of periapsis: 343.9843 deg

Mean anomaly: 15.9583 deg

Mean motion: 14.2479786 rev/day

Mean motion (dot): 0.00003808 rev/day2

B* drag term: 0.0016256161 1/REarth

Two-line elements (TLE)

Creation date: Oct. 29, 2025, 7:31 p.m.

Reference frame: TEME

Reference center: EARTH

Epoch: Oct. 29, 2025, 4:02 a.m. UTC

TLE line 0: 0 FENGYUN 1C DEB

TLE line 1: 1 41827U 99025EYE 25302.16840111 .00003808 00000-0 16256-2 0 9992

TLE line 2: 2 41827 98.7454 11.5387 0055366 343.9843 15.9583 14.24797860466965

Live tracking on map

Real-time ground track for satellite FENGYUN 1C DEB.

In-orbit conjunctions

A list of the most updated potential collisions computed for object FENGYUN 1C DEB.

Target Orbit TCA Probability of collision Miss distance Type
COSMOS 1275 DEB LEO 2024-11-11 09:42:44 0.000529772 395.0 (m) DEBRIS

Associated space launch

Chinese polar orbiting meteorological satellite

FENGYUN 1C DEB was lifted into orbit during the mission ‘Long March 4B | Feng Yun 1C’, on board a Long March 4B space rocket.

The launch took place on May 10, 1999, 1:33 a.m. from Launch Complex 7.

For more information about the launch, click the button.

Launch to space Long March 4B | Feng Yun 1C
Long March 4B | Feng Yun 1C

Agency: N/A

Status: Launch Successful

Launch date: May 10, 1999, 1:33 a.m. UTC

Rocket: Long March 4B

Launch pad: Launch Complex 7

Location: Taiyuan Satellite Launch Center, People's Republic of China

...

Latest news about this satellite

There are no fresh news available about this satellite. Check back as we update our databases every day.


Newsletter sign-up

Weekly statistics, charts and insights to help you stay on top of the space industry.